Location: Amarillo Post Office Jordan Station
(35.1907°N, 101.9342°W)
Time: 16:35:41
(UTC+00:00)

USA 307 - Pass Details

Date: 24 January 2021
Orbit: 562 x 583 km, 54.0° (Epoch: 28 February)

Event Time Altitude Azimuth Distance (km) Brightness Sun altitude
Exits shadow 12:37:04 28° 281° (W) 1,068 3.7 -15.4°
Maximum altitude 12:38:27 36° 321° (NW) 900 3.5 -15.1°
Drops below altitude 10° 12:42:21 10° 29° (NNE) 1,854 5.7 -14.3°
Sets 12:44:44 0° 38° (NE) 2,753 6.7 -13.9°
